TimeWEST,TemperatureF,Dew PointF,Humidity,Sea Level PressureIn,VisibilityMPH,Wind Direction,Wind SpeedMPH,Gust SpeedMPH,PrecipitationIn,Events,Conditions,WindDirDegrees,DateUTC
12:00 AM,59.0,50.0,72,30.01,6.2,WNW,11.5,-,N/A,,Scattered Clouds,290,2013-05-17 23:00:00
12:30 AM,59.0,50.0,72,30.04,6.2,West,12.7,-,N/A,,Scattered Clouds,280,2013-05-17 23:30:00
1:00 AM,58,50,68,30.01,6,WNW,9.2,,,,,290,2013-05-18 00:00:00
1:00 AM,59.0,50.0,72,30.01,6.2,WNW,10.4,-,N/A,,Unknown,290,2013-05-18 00:00:00
1:30 AM,59.0,50.0,72,30.01,6.2,West,9.2,-,N/A,,Unknown,270,2013-05-18 00:30:00
2:00 AM,57.2,50.0,77,30.01,6.2,West,10.4,-,N/A,,Unknown,270,2013-05-18 01:00:00
2:30 AM,57.2,51.8,82,30.01,6.2,West,10.4,-,N/A,,Unknown,260,2013-05-18 01:30:00
3:00 AM,57.2,51.8,82,30.01,6.2,West,9.2,-,N/A,,Unknown,260,2013-05-18 02:00:00
3:30 AM,55.4,51.8,88,30.01,6.2,West,4.6,-,N/A,,Unknown,260,2013-05-18 02:30:00
4:00 AM,56,51,78,30.01,6,WSW,6.9,,,,,250,2013-05-18 03:00:00
4:00 AM,55.4,51.8,88,30.01,6.2,WSW,5.8,-,N/A,,Unknown,250,2013-05-18 03:00:00
4:30 AM,55.4,51.8,88,30.01,6.2,West,9.2,-,N/A,,Unknown,260,2013-05-18 03:30:00
5:00 AM,57.2,51.8,82,30.01,6.2,WSW,8.1,-,N/A,,Unknown,250,2013-05-18 04:00:00
5:30 AM,57.2,51.8,82,30.04,6.2,WSW,6.9,-,N/A,,Unknown,250,2013-05-18 04:30:00
6:00 AM,57.2,51.8,82,30.04,6.2,West,2.3,-,N/A,,Unknown,270,2013-05-18 05:00:00
6:30 AM,55.4,53.6,94,30.04,6.2,WNW,9.2,-,N/A,,Unknown,300,2013-05-18 05:30:00
7:00 AM,53,51,92,30.08,3,North,2.3,,,Rain,Rain,0,2013-05-18 06:00:00
7:00 AM,51.8,51.8,100,30.06,3.1,North,4.6,-,N/A,Rain,Heavy Rain,360,2013-05-18 06:00:00
7:30 AM,51.8,51.8,100,30.06,3.1,Calm,Calm,-,N/A,Rain,Light Rain,0,2013-05-18 06:30:00
8:00 AM,51.8,51.8,100,30.09,3.1,NNW,4.6,-,N/A,Rain,Light Rain,340,2013-05-18 07:00:00
8:30 AM,51.8,51.8,100,30.09,3.1,Calm,Calm,-,N/A,Rain,Light Rain,0,2013-05-18 07:30:00
9:00 AM,53.6,51.8,94,30.12,5.0,Calm,Calm,-,N/A,,Mostly Cloudy,0,2013-05-18 08:00:00
9:30 AM,53.6,51.8,94,30.12,5.0,Calm,Calm,-,N/A,,Mostly Cloudy,0,2013-05-18 08:30:00
10:00 AM,55,53,88,30.14,5,Calm,Calm,,,,Partly Cloudy,,2013-05-18 09:00:00
10:00 AM,55.4,51.8,88,30.12,5.0,Calm,Calm,-,N/A,,Mostly Cloudy,0,2013-05-18 09:00:00
10:30 AM,55.4,51.8,88,30.15,5.0,Calm,Calm,-,N/A,,Mostly Cloudy,0,2013-05-18 09:30:00
11:00 AM,57.2,51.8,82,30.15,5.0,Calm,Calm,-,N/A,,Mostly Cloudy,0,2013-05-18 10:00:00
11:30 AM,59.0,50.0,72,30.15,5.0,East,3.5,-,N/A,,Mostly Cloudy,100,2013-05-18 10:30:00
12:00 PM,59.0,50.0,72,30.15,5.0,ENE,6.9,-,N/A,,Mostly Cloudy,60,2013-05-18 11:00:00
12:30 PM,59.0,51.8,77,30.15,5.0,ENE,5.8,-,N/A,,Mostly Cloudy,60,2013-05-18 11:30:00
12:49 PM,59,50,63,30.16,5,NNE,2.3,,,,Mostly Cloudy,30,2013-05-18 11:49:00
1:00 PM,59.0,50.0,72,30.15,5.0,Variable,2.3,-,N/A,,Mostly Cloudy,0,2013-05-18 12:00:00
1:30 PM,60.8,50.0,68,30.15,5.0,Variable,2.3,-,N/A,,Mostly Cloudy,0,2013-05-18 12:30:00
2:00 PM,60.8,50.0,68,30.15,5.0,NE,6.9,-,N/A,,Mostly Cloudy,50,2013-05-18 13:00:00
2:30 PM,62.6,50.0,63,30.18,5.0,NE,4.6,-,N/A,,Mostly Cloudy,50,2013-05-18 13:30:00
3:00 PM,62.6,50.0,63,30.18,5.0,Variable,2.3,-,N/A,,Mostly Cloudy,0,2013-05-18 14:00:00
3:30 PM,62.6,50.0,63,30.18,5.0,NNE,5.8,-,N/A,,Mostly Cloudy,30,2013-05-18 14:30:00
3:47 PM,64,48,46,30.13,5,ENE,6.9,,,,Mostly Cloudy,70,2013-05-18 14:47:00
4:00 PM,64.4,48.2,56,30.15,5.0,ENE,5.8,-,N/A,,Mostly Cloudy,60,2013-05-18 15:00:00
4:30 PM,68.0,48.2,49,30.15,5.0,East,4.6,-,N/A,,Mostly Cloudy,90,2013-05-18 15:30:00
5:00 PM,68.0,46.4,46,30.15,5.0,Calm,Calm,-,N/A,,Mostly Cloudy,0,2013-05-18 16:00:00
5:30 PM,68.0,46.4,46,30.15,5.0,NE,6.9,-,N/A,,Mostly Cloudy,40,2013-05-18 16:30:00
6:00 PM,66.2,44.6,46,30.12,5.0,NNE,4.6,-,N/A,,Mostly Cloudy,20,2013-05-18 17:00:00
6:30 PM,68.0,42.8,40,30.12,5.0,NE,5.8,-,N/A,,Mostly Cloudy,40,2013-05-18 17:30:00
6:48 PM,69,45,31,30.09,5,NE,5.8,,,,Mostly Cloudy,40,2013-05-18 17:48:00
7:00 PM,69.8,44.6,40,30.12,5.0,NE,5.8,-,N/A,,Mostly Cloudy,50,2013-05-18 18:00:00
7:30 PM,68.0,44.6,43,30.12,5.0,ENE,2.3,-,N/A,,Mostly Cloudy,70,2013-05-18 18:30:00
8:00 PM,68.0,42.8,40,30.12,5.0,Calm,Calm,-,N/A,,Mostly Cloudy,0,2013-05-18 19:00:00
8:30 PM,66.2,44.6,46,30.12,5.0,NE,4.6,-,N/A,,Scattered Clouds,50,2013-05-18 19:30:00
9:00 PM,64.4,42.8,45,30.15,5.0,Calm,Calm,-,N/A,,Scattered Clouds,0,2013-05-18 20:00:00
9:30 PM,62.6,44.6,52,30.15,5.0,Calm,Calm,-,N/A,,Scattered Clouds,0,2013-05-18 20:30:00
10:00 PM,61,46,46,30.14,5,Calm,Calm,,,,Scattered Clouds,,2013-05-18 21:00:00
10:00 PM,60.8,46.4,59,30.15,5.0,Calm,Calm,-,N/A,,Scattered Clouds,0,2013-05-18 21:00:00
10:30 PM,62.6,46.4,55,30.15,5.0,ESE,3.5,-,N/A,,Scattered Clouds,110,2013-05-18 21:30:00
11:00 PM,62.6,46.4,55,30.15,5.0,ESE,2.3,-,N/A,,Partly Cloudy,110,2013-05-18 22:00:00
11:30 PM,59.0,44.6,59,30.18,5.0,NNE,9.2,-,N/A,,Partly Cloudy,20,2013-05-18 22:30:00